User: anonymous   Login
Location: Hiekkapohja
(62.3333°N, 25.7833°E)
Time: 07:53:54
(UTC+00:00)
Language:

Cosmos 2297 Rocket - Orbit

View from above orbital plane
View from above orbital plane
View from above satellite
View from above satellite

Ground track
Ground track

The orbit data is extracted from the following two-line orbital elements,

1 23405U 94077B   20299.89272668 -.00000307 +00000-0 -13334-3 0  9990
2 23405 070.9821 156.2024 0005091 265.9725 094.0815 14.15225981338812
Epoch (UTC): 25 October 2020 21:25:31
Eccentricity: 0.0005091
inclination: 70.9821°
perigee height: 838 km
apogee height: 845 km
right ascension of ascending node: 156.2024°
argument of perigee: 265.9725°
revolutions per day: 14.15225981
mean anomaly at epoch: 94.0815°
orbit number at epoch: 33881

The dashed part of the orbit path shows where the satellite is in the earth's shadow,  

DLR